Home   Weather   Foochow   Past weeks

Flag for China Past Weather in Foochow, Fujian, China — Yesterday and Last 2 Weeks

Now
77 °F

Partly sunny.


Feels Like: 79 °F
Forecast: 73 / 85 °F
Wind: 8 mph from North

Location: Fuzhou Airport

Current Time: Sep 26, 2016 at 8:21:50 AM

Latest Report: Sep 26, 2016 at 8:00 AM


Visibility: N/A

Pressure: 29.83 "Hg

Humidity: 74%

Dew Point: 68 °F

Location of FoochowLocation

Past Weather in Foochow — Graph

°F

Foochow Temperature Yesterday

Maximum temperature yesterday: 84 °F (at 11:00 AM)
Minimum temperature yesterday: 73 °F (at 4:00 AM)
Average temperature yesterday: 78 °F

High & Low Weather Summary for the Past Weeks

 TemperatureHumidityPressure
High90 °F (Sep 18, 1:00 PM)100% (Sep 11, 7:00 AM)30.07 "Hg (Sep 11, 7:00 AM)
Low72 °F (Sep 11, 9:00 PM)48% (Sep 19, 11:00 AM)29.56 "Hg (Sep 14, 4:00 PM)
Average79 °F79%29.84 "Hg
* Reported Sep 11 7:00 AM — Sep 26 7:00 AM, Foochow, Weather by CustomWeather, © 2016

Note: Actual official high and low records may vary slightly from our data, if they occured in-between our weather recording intervals... More about our weather records

Advertising

Foochow Weather History for the Previous 24 Hours

Scroll right to see more
 ConditionsComfort  
Time TempWeatherWind HumidityBarometerVisibility
7:00 AM
Mon, Sep 26
75 °FPartly sunny.3 mph74%29.83 "HgN/A
6:00 AM75 °FSunny.3 mph74%29.80 "Hg10 mi
5:00 AM75 °FPassing clouds.6 mph74%29.80 "HgN/A
4:00 AM75 °FPassing clouds.6 mph78%29.80 "HgN/A
3:00 AM75 °FPassing clouds.3 mph78%29.80 "HgN/A
2:00 AM75 °FPassing clouds.6 mph78%29.83 "HgN/A
1:00 AM75 °FPassing clouds.6 mph83%29.83 "HgN/A
12:00 AM77 °FPassing clouds.10 mph79%29.86 "HgN/A
11:00 PM
Sun, Sep 25
77 °FPassing clouds.10 mph83%29.86 "HgN/A
10:00 PM77 °FPassing clouds.10 mph83%29.89 "HgN/A
9:00 PM77 °FPassing clouds.10 mph83%29.89 "HgN/A
8:00 PM77 °FPassing clouds.10 mph83%29.89 "HgN/A
7:00 PM79 °FPassing clouds.13 mph79%29.86 "HgN/A
6:00 PM79 °FPassing clouds.13 mph84%29.83 "HgN/A
5:00 PM81 °FScattered clouds.13 mph79%29.83 "HgN/A
4:00 PM82 °FPassing clouds.15 mph70%29.83 "HgN/A
3:00 PM82 °FPassing clouds.15 mph70%29.83 "HgN/A
2:00 PM84 °FPassing clouds.17 mph66%29.83 "HgN/A
1:00 PM84 °FScattered clouds.15 mph62%29.86 "HgN/A
12:00 PM82 °FScattered clouds.15 mph66%29.89 "HgN/A
11:00 AM84 °FPassing clouds.15 mph62%29.92 "HgN/A
10:00 AM82 °FPassing clouds.10 mph62%29.92 "HgN/A
9:00 AM81 °FPassing clouds.8 mph66%29.92 "HgN/A
8:00 AM77 °FPassing clouds.6 mph74%29.92 "HgN/A
Weather by CustomWeather, © 2016

See weather overviewHow to use our weather pages